This is the latest recevied weather packets stored in our database for station/object SP7QPD-1. If no packets are shown the sender has not sent any weather packets the latest 10 day(s).
| Time | Temp. | Humidity | Pressure | Rain* | Wind** | Luminosity | Snow |
|---|---|---|---|---|---|---|---|
| 1778064208 | 22.78° C | 51% | 1003.1 hPa | 0 mm | - | - | - |
| 1778063608 | 22.78° C | 50% | 1003.1 hPa | 0 mm | - | - | - |
| 1778063008 | 22.78° C | 50% | 1003 hPa | 0 mm | - | - | - |
| 1778062408 | 22.78° C | 50% | 1003.2 hPa | 0 mm | - | - | - |
| 1778061808 | 22.22° C | 51% | 1003 hPa | 0 mm | - | - | - |
| 1778061208 | 22.22° C | 52% | 1002.9 hPa | 0 mm | - | - | - |
| 1778060607 | 21.67° C | 53% | 1003 hPa | 0 mm | - | - | - |
| 1778060007 | 21.67° C | 53% | 1003 hPa | 0 mm | - | - | - |
| 1778059407 | 21.67° C | 54% | 1003 hPa | 0 mm | - | - | - |
| 1778058807 | 22.22° C | 53% | 1003.1 hPa | 0 mm | - | - | - |
| 1778058207 | 21.67° C | 54% | 1002.9 hPa | 0 mm | - | - | - |
| 1778057607 | 21.67° C | 54% | 1002.8 hPa | 0 mm | - | - | - |
| 1778057007 | 21.11° C | 55% | 1002.9 hPa | 0 mm | - | - | - |
| 1778056407 | 20.56° C | 56% | 1002.8 hPa | 0 mm | - | - | - |
| 1778055807 | 21.11° C | 56% | 1002.8 hPa | 0 mm | - | - | - |
| 1778055207 | 20.56° C | 57% | 1002.7 hPa | 0 mm | - | - | - |
| 1778054607 | 20° C | 58% | 1002.8 hPa | 0 mm | - | - | - |
| 1778054007 | 20° C | 58% | 1002.8 hPa | 0 mm | - | - | - |
| 1778053406 | 18.89° C | 60% | 1002.7 hPa | 0 mm | - | - | - |
| 1778052806 | 18.33° C | 61% | 1002.7 hPa | 0 mm | - | - | - |
| 1778052206 | 17.78° C | 64% | 1002.5 hPa | 0 mm | - | - | - |
| 1778051606 | 17.22° C | 63% | 1002.5 hPa | 0 mm | - | - | - |
| 1778051006 | 17.22° C | 64% | 1002.5 hPa | 0 mm | - | - | - |
| 1778050406 | 16.67° C | 64% | 1002.5 hPa | 0 mm | - | - | - |
| 1778049806 | 16.67° C | 65% | 1002.5 hPa | 0 mm | - | - | - |
* Rain latest hour (hover to see other rain measurements)
** Current wind speed in m/s (hover to see current wind gust speed)